Location: Berduj
(43.0019°N, 22.3781°E)
Time: 02:43:58
(UTC+00:00)

Cosmos 1833 Rocket - Pass Details

Date: 19 October 2019
Orbit: 833 x 839 km, 71.0° (Epoch: 15 November)

Event Time Altitude Azimuth Distance (km) Brightness Sun altitude
Rises 16:17:49 0° 342° (NNW) 3,391 6.0 -7.3°
Reaches altitude 10° 16:20:32 10° 352° (N) 2,454 5.1 -7.7°
Maximum altitude 16:25:32 32° 55° (NE) 1,406 3.4 -8.7°
Drops below altitude 10° 16:30:31 10° 118° (ESE) 2,445 4.6 -9.6°
Enters shadow 16:31:56 - 124° (SE) 2,925 5.0 -9.8°
